| time (UTC) | temp C | wind direction | speed KPH | gust KPH | rain 1hr cm | rain 24hr cm | rain mn cm | humidity % | barometer mb |
| 20260505075555 | 11 | 87 | 1.6 | 9.7 | 0.00 | 0.00 | 0.00 | 79 | 1009.5 |
| 20260505075057 | 11 | 304 | 3.2 | 9.7 | 0.00 | 0.00 | 0.00 | 79 | 1009.5 |
| 20260505074607 | 11 | 0 | 1.6 | 8.0 | 0.00 | 0.00 | 0.00 | 79 | 1009.5 |
| 20260505074059 | 11 | 225 | 1.6 | 11.3 | 0.00 | 0.00 | 0.00 | 78 | 1009.5 |
| 20260505073559 | 11 | 109 | 3.2 | 11.3 | 0.00 | 0.00 | 0.00 | 78 | 1009.6 |
| 20260505073108 | 11 | 201 | 1.6 | 9.7 | 0.00 | 0.00 | 0.00 | 78 | 1009.5 |
| 20260505072557 | 11 | 0 | 1.6 | 12.9 | 0.00 | 0.00 | 0.00 | 78 | 1009.6 |
| 20260505072058 | 11 | 106 | 1.6 | 12.9 | 0.00 | 0.00 | 0.00 | 77 | 1009.5 |
| 20260505071557 | 11 | 251 | 1.6 | 12.9 | 0.00 | 0.00 | 0.00 | 77 | 1009.7 |
| 20260505071058 | 11 | 221 | 3.2 | 12.9 | 0.00 | 0.00 | 0.00 | 77 | 1009.6 |
| 20260505070558 | 11 | 142 | 3.2 | 11.3 | 0.00 | 0.00 | 0.00 | 76 | 1009.6 |
| 20260505070055 | 11 | 0 | 1.6 | 9.7 | 0.00 | 0.00 | 0.00 | 76 | 1009.6 |
| 20260505065555 | 11 | 213 | 0.0 | 9.7 | 0.00 | 0.00 | 0.00 | 75 | 1009.5 |
| 20260505065101 | 11 | 136 | 1.6 | 9.7 | 0.00 | 0.00 | 0.00 | 75 | 1009.5 |
| 20260505064603 | 11 | 0 | 1.6 | 12.9 | 0.00 | 0.00 | 0.00 | 75 | 1009.6 |
| 20260505064058 | 11 | 246 | 1.6 | 12.9 | 0.00 | 0.00 | 0.00 | 74 | 1009.4 |
| 20260505063558 | 11 | 80 | 1.6 | 9.7 | 0.00 | 0.00 | 0.00 | 74 | 1009.5 |
| 20260505063056 | 11 | 318 | 1.6 | 9.7 | 0.00 | 0.00 | 0.00 | 74 | 1009.6 |
| 20260505062559 | 11 | 168 | 0.0 | 12.9 | 0.00 | 0.00 | 0.00 | 74 | 1009.5 |
| 20260505062055 | 11 | 0 | 3.2 | 12.9 | 0.00 | 0.00 | 0.00 | 74 | 1009.5 |
| 20260505061557 | 11 | 252 | 3.2 | 14.5 | 0.00 | 0.00 | 0.00 | 74 | 1009.5 |
| 20260505061057 | 11 | 259 | 3.2 | 14.5 | 0.00 | 0.00 | 0.00 | 74 | 1009.5 |
| 20260505060558 | 11 | 200 | 1.6 | 14.5 | 0.00 | 0.00 | 0.00 | 74 | 1009.7 |
| 20260505060058 | 11 | 137 | 1.6 | 12.9 | 0.00 | 0.00 | 0.00 | 73 | 1009.6 |
| 20260505055558 | 11 | 136 | 3.2 | 12.9 | 0.00 | 0.00 | 0.00 | 74 | 1009.7 |
| 20260505055058 | 11 | 180 | 1.6 | 6.4 | 0.00 | 0.00 | 0.00 | 73 | 1009.7 |
| 20260505054604 | 11 | 0 | 1.6 | 8.0 | 0.00 | 0.00 | 0.00 | 73 | 1009.6 |
| 20260505054058 | 11 | 302 | 1.6 | 11.3 | 0.00 | 0.00 | 0.00 | 73 | 1009.7 |
| 20260505053556 | 11 | 142 | 3.2 | 11.3 | 0.00 | 0.00 | 0.00 | 73 | 1009.6 |
| 20260505053110 | 11 | 0 | 1.6 | 11.3 | 0.00 | 0.00 | 0.00 | 73 | 1009.6 |
| 20260505052557 | 11 | 0 | 1.6 | 11.3 | 0.00 | 0.00 | 0.00 | 73 | 1009.7 |
| 20260505052057 | 11 | 182 | 1.6 | 9.7 | 0.00 | 0.00 | 0.00 | 73 | 1009.7 |
| 20260505051555 | 11 | 150 | 1.6 | 9.7 | 0.00 | 0.00 | 0.00 | 73 | 1009.8 |
| 20260505051059 | 11 | 40 | 1.6 | 8.0 | 0.00 | 0.00 | 0.00 | 73 | 1009.7 |
| 20260505050557 | 11 | 113 | 1.6 | 9.7 | 0.00 | 0.00 | 0.00 | 73 | 1009.8 |
| 20260505041613 | 12 | 360 | 3.2 | 16.1 | 0.00 | 0.00 | 0.00 | 70 | 1009.9 |
| 20260505041057 | 12 | 169 | 3.2 | 11.3 | 0.00 | 0.00 | 0.00 | 70 | 1009.8 |
| 20260505040557 | 12 | 52 | 1.6 | 11.3 | 0.00 | 0.00 | 0.00 | 70 | 1009.8 |
| 20260505040056 | 12 | 296 | 1.6 | 9.7 | 0.00 | 0.00 | 0.00 | 70 | 1009.8 |
| 20260505035558 | 12 | 0 | 3.2 | 14.5 | 0.00 | 0.00 | 0.00 | 69 | 1009.8 |
| 20260505035102 | 12 | 300 | 4.8 | 14.5 | 0.00 | 0.00 | 0.00 | 69 | 1009.7 |
| 20260505034604 | 12 | 130 | 1.6 | 12.9 | 0.00 | 0.00 | 0.00 | 69 | 1009.7 |
| 20260505034058 | 12 | 142 | 3.2 | 12.9 | 0.00 | 0.00 | 0.00 | 68 | 1009.6 |
| 20260505033558 | 12 | 71 | 1.6 | 6.4 | 0.00 | 0.00 | 0.00 | 67 | 1009.6 |
| 20260505033056 | 12 | 176 | 1.6 | 17.7 | 0.00 | 0.00 | 0.00 | 67 | 1009.6 |
| 20260505032602 | 12 | 0 | 1.6 | 17.7 | 0.00 | 0.00 | 0.00 | 67 | 1009.8 |
| 20260505032057 | 12 | 168 | 1.6 | 12.9 | 0.00 | 0.00 | 0.00 | 66 | 1009.7 |
| 20260505031606 | 12 | 350 | 4.8 | 14.5 | 0.00 | 0.00 | 0.00 | 66 | 1009.6 |
| 20260505031103 | 12 | 304 | 1.6 | 14.5 | 0.00 | 0.00 | 0.00 | 66 | 1009.6 |
| 20260505030557 | 12 | 242 | 3.2 | 14.5 | 0.00 | 0.00 | 0.00 | 65 | 1009.6 |
| 20260505030058 | 12 | 145 | 1.6 | 12.9 | 0.00 | 0.00 | 0.00 | 65 | 1009.7 |
| 20260505025558 | 12 | 146 | 1.6 | 14.5 | 0.00 | 0.00 | 0.00 | 65 | 1009.6 |
| 20260505025059 | 12 | 151 | 4.8 | 16.1 | 0.00 | 0.00 | 0.00 | 65 | 1009.7 |
| 20260505024558 | 12 | 317 | 3.2 | 16.1 | 0.00 | 0.00 | 0.00 | 64 | 1009.7 |
| 20260505024057 | 12 | 100 | 3.2 | 16.1 | 0.00 | 0.00 | 0.00 | 64 | 1009.6 |
| 20260505023558 | 12 | 294 | 3.2 | 16.1 | 0.00 | 0.00 | 0.00 | 64 | 1009.6 |
| 20260505023103 | 12 | 184 | 4.8 | 17.7 | 0.00 | 0.00 | 0.00 | 64 | 1009.6 |
| 20260505022558 | 12 | 58 | 4.8 | 17.7 | 0.00 | 0.00 | 0.00 | 64 | 1009.6 |
| 20260505022057 | 12 | 136 | 4.8 | 14.5 | 0.00 | 0.00 | 0.00 | 65 | 1009.6 |
| 20260505021558 | 12 | 192 | 3.2 | 16.1 | 0.00 | 0.00 | 0.00 | 65 | 1009.7 |
| 20260505021057 | 12 | 328 | 4.8 | 16.1 | 0.00 | 0.00 | 0.00 | 65 | 1009.7 |
| 20260505020558 | 12 | 302 | 3.2 | 24.1 | 0.00 | 0.00 | 0.00 | 65 | 1009.9 |
| 20260505020057 | 13 | 150 | 3.2 | 24.1 | 0.00 | 0.00 | 0.00 | 64 | 1009.7 |
| 20260505015559 | 13 | 42 | 4.8 | 22.5 | 0.00 | 0.00 | 0.00 | 63 | 1009.6 |
| 20260505015058 | 13 | 27 | 1.6 | 12.9 | 0.00 | 0.00 | 0.00 | 62 | 1009.7 |
| 20260505014557 | 13 | 273 | 3.2 | 14.5 | 0.00 | 0.00 | 0.00 | 61 | 1009.5 |
| 20260505014101 | 13 | 320 | 3.2 | 14.5 | 0.00 | 0.00 | 0.00 | 60 | 1009.4 |
| 20260505013557 | 14 | 333 | 4.8 | 14.5 | 0.00 | 0.00 | 0.00 | 59 | 1009.3 |
| 20260505013101 | 14 | 238 | 3.2 | 12.9 | 0.00 | 0.00 | 0.00 | 57 | 1009.2 |
| 20260505012557 | 15 | 134 | 1.6 | 12.9 | 0.00 | 0.00 | 0.00 | 56 | 1009.3 |
| 20260505012057 | 15 | 222 | 3.2 | 12.9 | 0.00 | 0.00 | 0.00 | 55 | 1009.3 |
| 20260505011559 | 14 | 339 | 1.6 | 19.3 | 0.00 | 0.00 | 0.00 | 55 | 1009.0 |
| 20260505011100 | 14 | 309 | 3.2 | 19.3 | 0.00 | 0.00 | 0.00 | 56 | 1009.0 |
| 20260505010558 | 14 | 246 | 4.8 | 19.3 | 0.00 | 0.00 | 0.00 | 57 | 1008.9 |
| 20260505010056 | 14 | 92 | 6.4 | 19.3 | 0.00 | 0.00 | 0.00 | 57 | 1008.8 |
| 20260505005558 | 14 | 88 | 3.2 | 17.7 | 0.00 | 0.00 | 0.00 | 56 | 1008.8 |
| 20260505005058 | 15 | 0 | 4.8 | 19.3 | 0.00 | 0.00 | 0.00 | 56 | 1008.6 |
| 20260505004558 | 15 | 5 | 4.8 | 20.9 | 0.00 | 0.00 | 0.00 | 55 | 1008.5 |
| 20260505004057 | 15 | 205 | 3.2 | 20.9 | 0.00 | 0.00 | 0.00 | 54 | 1008.4 |
| 20260505003557 | 15 | 90 | 6.4 | 20.9 | 0.00 | 0.00 | 0.00 | 53 | 1008.4 |
| 20260505003057 | 15 | 252 | 4.8 | 20.9 | 0.00 | 0.00 | 0.00 | 52 | 1008.2 |
| 20260505002557 | 16 | 28 | 4.8 | 20.9 | 0.00 | 0.00 | 0.00 | 51 | 1008.0 |
| 20260505002058 | 16 | 312 | 4.8 | 24.1 | 0.00 | 0.00 | 0.00 | 51 | 1007.8 |
| 20260505001558 | 16 | 314 | 6.4 | 27.4 | 0.00 | 0.00 | 0.00 | 50 | 1007.7 |
| 20260505001057 | 16 | 269 | 4.8 | 27.4 | 0.00 | 0.00 | 0.00 | 51 | 1007.5 |
| 20260505000554 | 16 | 293 | 4.8 | 27.4 | 0.00 | 0.00 | 0.00 | 51 | 1007.4 |
| 20260505000106 | 16 | 154 | 8.0 | 27.4 | 0.00 | 0.00 | 0.00 | 50 | 1007.3 |
| 20260504235557 | 16 | 19 | 6.4 | 20.9 | 0.00 | 0.00 | 0.00 | 50 | 1007.3 |
| 20260504235100 | 16 | 252 | 4.8 | 20.9 | 0.00 | 0.00 | 0.00 | 50 | 1007.2 |
| 20260504234632 | 16 | 182 | 8.0 | 32.2 | 0.00 | 0.00 | 0.00 | 50 | 1007.2 |
| 20260504234058 | 16 | 24 | 9.7 | 32.2 | 0.00 | 0.00 | 0.00 | 50 | 1007.2 |
| 20260504233600 | 16 | 155 | 8.0 | 29.0 | 0.00 | 0.00 | 0.00 | 50 | 1007.1 |
| 20260504233100 | 16 | 325 | 6.4 | 24.1 | 0.00 | 0.00 | 0.00 | 50 | 1007.0 |
| 20260504232559 | 16 | 208 | 8.0 | 24.1 | 0.00 | 0.00 | 0.00 | 50 | 1006.7 |
| 20260504232057 | 16 | 113 | 8.0 | 20.9 | 0.00 | 0.00 | 0.00 | 49 | 1006.7 |
| 20260504231604 | 17 | 222 | 4.8 | 25.7 | 0.00 | 0.00 | 0.00 | 49 | 1006.6 |
| 20260504231057 | 17 | 267 | 6.4 | 25.7 | 0.00 | 0.00 | 0.00 | 48 | 1006.4 |
| 20260504230600 | 17 | 275 | 6.4 | 20.9 | 0.00 | 0.00 | 0.00 | 48 | 1006.4 |
| 20260504230058 | 17 | 223 | 8.0 | 20.9 | 0.00 | 0.00 | 0.00 | 47 | 1006.2 |
| 20260504225558 | 17 | 34 | 4.8 | 22.5 | 0.00 | 0.00 | 0.00 | 47 | 1006.1 |
| 20260504225059 | 17 | 177 | 6.4 | 22.5 | 0.00 | 0.00 | 0.00 | 47 | 1006.1 |
| 20260504224603 | 17 | 209 | 6.4 | 17.7 | 0.00 | 0.00 | 0.00 | 47 | 1006.1 |
| 20260504224100 | 17 | 200 | 4.8 | 17.7 | 0.00 | 0.00 | 0.00 | 46 | 1006.1 |
| 20260504223557 | 18 | 350 | 4.8 | 17.7 | 0.00 | 0.00 | 0.00 | 45 | 1005.9 |
| 20260504223100 | 18 | 302 | 6.4 | 17.7 | 0.00 | 0.00 | 0.00 | 44 | 1005.9 |
| 20260504222559 | 18 | 0 | 3.2 | 14.5 | 0.00 | 0.00 | 0.00 | 44 | 1005.9 |
| 20260504222057 | 18 | 94 | 3.2 | 17.7 | 0.00 | 0.00 | 0.00 | 43 | 1005.8 |
| 20260504221602 | 18 | 146 | 3.2 | 17.7 | 0.00 | 0.00 | 0.00 | 42 | 1005.8 |
| 20260504221058 | 19 | 271 | 3.2 | 16.1 | 0.00 | 0.00 | 0.00 | 40 | 1005.7 |
| 20260504220558 | 19 | 225 | 3.2 | 16.1 | 0.00 | 0.00 | 0.00 | 39 | 1005.7 |
| 20260504220058 | 20 | 140 | 6.4 | 17.7 | 0.00 | 0.00 | 0.00 | 37 | 1005.7 |
| 20260504215600 | 21 | 132 | 8.0 | 17.7 | 0.00 | 0.00 | 0.00 | 35 | 1005.6 |
| 20260504215058 | 22 | 146 | 3.2 | 14.5 | 0.00 | 0.00 | 0.00 | 30 | 1005.8 |
| 20260504214559 | 22 | 266 | 4.8 | 14.5 | 0.00 | 0.00 | 0.00 | 29 | 1005.6 |
| 20260504214057 | 22 | 146 | 4.8 | 17.7 | 0.00 | 0.00 | 0.00 | 29 | 1005.7 |
| 20260504213606 | 22 | 201 | 4.8 | 17.7 | 0.00 | 0.00 | 0.00 | 29 | 1005.7 |
| 20260504213059 | 21 | 273 | 8.0 | 17.7 | 0.00 | 0.00 | 0.00 | 28 | 1005.6 |
| 20260504212557 | 22 | 284 | 6.4 | 19.3 | 0.00 | 0.00 | 0.00 | 28 | 1005.7 |
| 20260504212059 | 22 | 176 | 8.0 | 19.3 | 0.00 | 0.00 | 0.00 | 28 | 1005.6 |
| 20260504211600 | 22 | 261 | 4.8 | 19.3 | 0.00 | 0.00 | 0.00 | 29 | 1005.7 |
| 20260504211058 | 22 | 274 | 6.4 | 19.3 | 0.00 | 0.00 | 0.00 | 28 | 1005.6 |
| 20260504210558 | 22 | 294 | 3.2 | 24.1 | 0.00 | 0.00 | 0.00 | 28 | 1005.7 |
| 20260504210110 | 22 | 218 | 8.0 | 24.1 | 0.00 | 0.00 | 0.00 | 28 | 1005.6 |
| 20260504205557 | 22 | 256 | 6.4 | 19.3 | 0.00 | 0.00 | 0.00 | 27 | 1005.7 |
| 20260504205058 | 22 | 287 | 6.4 | 19.3 | 0.00 | 0.00 | 0.00 | 27 | 1005.6 |
| 20260504204603 | 22 | 280 | 8.0 | 22.5 | 0.00 | 0.00 | 0.00 | 27 | 1005.7 |
| 20260504204057 | 22 | 170 | 4.8 | 22.5 | 0.00 | 0.00 | 0.00 | 27 | 1005.7 |
| 20260504203558 | 22 | 206 | 6.4 | 22.5 | 0.00 | 0.00 | 0.00 | 26 | 1005.8 |
| 20260504203104 | 22 | 292 | 3.2 | 29.0 | 0.00 | 0.00 | 0.00 | 27 | 1005.6 |
| 20260504202558 | 22 | 300 | 8.0 | 29.0 | 0.00 | 0.00 | 0.00 | 28 | 1005.8 |
| 20260504202102 | 22 | 296 | 12.9 | 29.0 | 0.00 | 0.00 | 0.00 | 27 | 1005.8 |
| 20260504201556 | 22 | 274 | 4.8 | 20.9 | 0.00 | 0.00 | 0.00 | 28 | 1005.8 |
| 20260504201055 | 22 | 280 | 6.4 | 27.4 | 0.00 | 0.00 | 0.00 | 27 | 1005.8 |
| 20260504200558 | 22 | 334 | 11.3 | 35.4 | 0.00 | 0.00 | 0.00 | 28 | 1005.8 |
| 20260504200112 | 22 | 264 | 14.5 | 35.4 | 0.00 | 0.00 | 0.00 | 27 | 1005.8 |
| 20260504195557 | 22 | 244 | 14.5 | 33.8 | 0.00 | 0.00 | 0.00 | 27 | 1005.9 |
| 20260504195057 | 22 | 236 | 9.7 | 25.7 | 0.00 | 0.00 | 0.00 | 28 | 1006.0 |
| 20260504194608 | 22 | 270 | 6.4 | 27.4 | 0.00 | 0.00 | 0.00 | 28 | 1005.8 |
| 20260504194058 | 22 | 269 | 9.7 | 27.4 | 0.00 | 0.00 | 0.00 | 27 | 1005.8 |
| 20260504193558 | 22 | 230 | 9.7 | 25.7 | 0.00 | 0.00 | 0.00 | 28 | 1005.7 |
| 20260504193058 | 22 | 321 | 9.7 | 22.5 | 0.00 | 0.00 | 0.00 | 28 | 1005.7 |
| 20260504192555 | 22 | 269 | 8.0 | 30.6 | 0.00 | 0.00 | 0.00 | 28 | 1005.8 |
| 20260504192057 | 21 | 298 | 8.0 | 30.6 | 0.00 | 0.00 | 0.00 | 28 | 1005.8 |
| 20260504191606 | 21 | 321 | 14.5 | 30.6 | 0.00 | 0.00 | 0.00 | 27 | 1005.8 |
| 20260504191058 | 22 | 246 | 12.9 | 29.0 | 0.00 | 0.00 | 0.00 | 27 | 1005.9 |
| 20260504190558 | 21 | 221 | 9.7 | 29.0 | 0.00 | 0.00 | 0.00 | 27 | 1005.8 |
| 20260504190128 | 21 | 246 | 9.7 | 30.6 | 0.00 | 0.00 | 0.00 | 28 | 1006.0 |
| 20260504185558 | 21 | 323 | 16.1 | 30.6 | 0.00 | 0.00 | 0.00 | 28 | 1006.0 |
| 20260504185058 | 21 | 215 | 8.0 | 25.7 | 0.00 | 0.00 | 0.00 | 28 | 1006.3 |
| 20260504184602 | 21 | 161 | 11.3 | 22.5 | 0.00 | 0.00 | 0.00 | 29 | 1006.1 |
| 20260504184056 | 21 | 252 | 6.4 | 22.5 | 0.00 | 0.00 | 0.00 | 28 | 1006.2 |
| 20260504183558 | 21 | 286 | 9.7 | 29.0 | 0.00 | 0.00 | 0.00 | 27 | 1006.0 |
| 20260504183058 | 21 | 296 | 6.4 | 29.0 | 0.00 | 0.00 | 0.00 | 28 | 1006.0 |
| 20260504182558 | 21 | 255 | 11.3 | 29.0 | 0.00 | 0.00 | 0.00 | 28 | 1006.1 |
| 20260504182058 | 21 | 263 | 9.7 | 27.4 | 0.00 | 0.00 | 0.00 | 28 | 1006.2 |
| 20260504181600 | 21 | 315 | 9.7 | 33.8 | 0.00 | 0.00 | 0.00 | 30 | 1006.2 |
| 20260504181058 | 20 | 298 | 8.0 | 33.8 | 0.00 | 0.00 | 0.00 | 28 | 1006.2 |
| 20260504180557 | 20 | 257 | 12.9 | 33.8 | 0.00 | 0.00 | 0.00 | 28 | 1006.4 |
| 20260504180155 | 20 | 254 | 11.3 | 29.0 | 0.00 | 0.00 | 0.00 | 28 | 1006.5 |
| 20260504175557 | 21 | 304 | 11.3 | 33.8 | 0.00 | 0.00 | 0.00 | 28 | 1006.4 |
| 20260504175101 | 20 | 332 | 8.0 | 33.8 | 0.00 | 0.00 | 0.00 | 29 | 1006.5 |
| 20260504174556 | 20 | 192 | 9.7 | 27.4 | 0.00 | 0.00 | 0.00 | 29 | 1006.6 |
| 20260504174058 | 20 | 304 | 11.3 | 24.1 | 0.00 | 0.00 | 0.00 | 30 | 1006.7 |
| 20260504173559 | 20 | 245 | 8.0 | 41.8 | 0.00 | 0.00 | 0.00 | 30 | 1006.6 |
| 20260504173113 | 20 | 136 | 14.5 | 41.8 | 0.00 | 0.00 | 0.00 | 29 | 1006.6 |
| 20260504172554 | 20 | 229 | 11.3 | 30.6 | 0.00 | 0.00 | 0.00 | 30 | 1006.7 |
| 20260504172058 | 20 | 241 | 9.7 | 24.1 | 0.00 | 0.00 | 0.00 | 30 | 1006.8 |
| 20260504171558 | 20 | 134 | 9.7 | 24.1 | 0.00 | 0.00 | 0.00 | 31 | 1006.5 |
| 20260504171054 | 20 | 284 | 11.3 | 22.5 | 0.00 | 0.00 | 0.00 | 31 | 1006.6 |
| 20260504170557 | 20 | 153 | 8.0 | 35.4 | 0.00 | 0.00 | 0.00 | 32 | 1006.9 |
| 20260504151055 | 18 | 285 | 4.8 | 27.4 | 0.00 | 0.05 | 0.00 | 38 | 1007.8 |
| 20260504150555 | 18 | 199 | 9.7 | 27.4 | 0.00 | 0.05 | 0.00 | 37 | 1008.0 |
| 20260504141055 | 17 | 284 | 9.7 | 24.1 | 0.00 | 0.05 | 0.00 | 39 | 1008.4 |
| 20260504140556 | 16 | 269 | 8.0 | 24.1 | 0.00 | 0.05 | 0.00 | 40 | 1008.5 |
| 20260504140109 | 16 | 234 | 6.4 | 24.1 | 0.00 | 0.05 | 0.00 | 39 | 1008.6 |
| 20260504130555 | 14 | 346 | 4.8 | 12.9 | 0.00 | 0.05 | 0.00 | 47 | 1009.1 |
| 20260504120112 | 11 | 306 | 3.2 | 12.9 | 0.00 | 0.05 | 0.00 | 51 | 1009.6 |
| 20260504110557 | 9 | 184 | 0.0 | 8.0 | 0.00 | 0.05 | 0.00 | 54 | 1009.9 |
| 20260504100553 | 8 | 293 | 1.6 | 8.0 | 0.00 | 0.05 | 0.00 | 55 | 1009.9 |
| 20260504081555 | 8 | 256 | 3.2 | 9.7 | 0.00 | 0.05 | 0.00 | 53 | 1009.3 |
| 20260504081054 | 8 | 276 | 1.6 | 9.7 | 0.00 | 0.05 | 0.00 | 54 | 1009.4 |
| 20260504080554 | 8 | 51 | 1.6 | 11.3 | 0.00 | 0.05 | 0.00 | 53 | 1009.3 |